Lid_Strength_Index
10 12 14 12 11 12 12 13 14 12 10 11 12 12 11 9 9 9 8 8 7 6 5 4 4 4 5 4 3 2 1 1 2 4 5 6 8 8 10 10 11 11 11 12
12 14 11 11 11 12 12 13 14 12 11 12 13 14 11 10 10 9 9 8 7 6 5 4 5 5 4 4 3 2 1 2 2 3 5 7 8 10 10 11 12 12 12 13
14 12 10 11 13 14 14 14 14 14 13 12 13 15 13 11 10 10 9 8 7 7 6 5 5 5 4 4 3 2 3 3 4 7 9 11 11 11 11 13 13 13 13 13
12 11 12 13 13 13 15 12 13 14 15 18 13 19 15 13 12 11 10 10 9 8 7 6 5 5 5 3 3 3 3 5 6 7 8 9 9 10 11 13 14 14 13 13
14 12 13 13 13 12 14 11 13 13 14 15 15 17 15 14 14 13 11 10 10 8 7 6 5 4 3 3 3 3 4 6 7 7 8 8 9 11 14 14 15 15 14 12
12 10 11 12 11 11 11 12 12 13 14 19 15 16 16 14 14 13 11 10 10 8 7 6 5 5 4 3 4 4 5 6 7 7 9 10 12 15 15 14 15 14 13 13
12 11 10 10 13 11 11 14 19 20 20 20 15 16 16 13 12 12 12 11 10 9 8 7 6 5 4 4 5 5 6 7 7 8 10 11 13 14 14 15 15 15 14 14
16 18 12 10 11 13 13 13 18 22 21 18 14 18 15 12 11 10 10 10 9 9 7 7 6 5 4 4 5 6 7 8 8 8 11 12 13 14 14 14 14 14 13 14
16 17 12 10 9 10 13 16 12 16 15 19 16 13 11 10 11 11 10 10 10 9 9 7 6 5 4 5 6 6 7 8 9 10 12 13 14 14 15 14 14 13 14 14
14 18 13 11 9 9 11 11 16 16 21 22 18 16 15 12 11 9 10 9 9 9 9 7 6 5 4 5 6 7 9 10 11 12 13 14 15 14 15 14 14 13 14 14
11 13 15 11 13 14 13 14 14 14 16 20 20 17 12 11 11 10 8 8 8 8 9 7 6 6 6 7 8 10 12 13 13 14 15 15 15 14 14 15 14 14 14 14
11 12 16 16 12 11 12 13 13 18 18 16 17 16 10 10 9 8 9 7 7 8 8 7 8 9 9 9 11 12 12 14 15 15 15 15 15 15 15 15 14 14 15 14
11 14 18 19 15 13 14 13 13 13 14 17 19 16 10 10 9 8 8 7 7 8 9 10 10 10 11 11 12 12 14 15 16 15 15 16 16 16 16 15 15 15 15 15
10 14 17 19 16 13 16 15 14 14 17 16 16 14 11 10 9 8 7 7 8 9 10 10 11 12 12 12 13 14 15 15 16 16 16 16 16 16 15 15 15 15 15 15
11 15 15 15 14 14 15 15 15 16 15 17 14 15 11 9 9 8 7 8 9 10 11 11 13 13 13 14 15 15 15 16 16 16 16 16 16 15 15 15 15 16 15 15
11 15 15 16 14 14 16 14 14 15 14 14 13 14 9 8 7 8 8 9 9 10 11 13 13 14 14 15 15 15 16 15 15 16 16 16 15 16 16 16 16 16 16 15
12 14 15 17 14 14 17 15 14 13 12 13 15 12 9 10 9 10 9 9 9 9 11 12 13 14 14 15 15 15 15 15 15 16 16 16 16 16 16 16 16 16 16 16
13 14 14 17 15 21 14 10 11 12 12 11 11 10 10 10 9 9 10 10 8 9 11 12 13 14 14 14 15 15 15 15 16 16 16 16 16 17 17 16 16 17 17 17
11 13 15 18 18 15 13 12 12 13 13 11 12 10 10 9 10 11 10 9 9 10 11 12 13 14 15 15 15 15 15 16 16 17 16 16 16 17 17 17 17 17 17 17
11 11 14 16 19 21 14 12 11 11 15 11 10 11 11 10 12 12 11 9 10 10 11 13 13 14 15 15 15 16 16 16 17 16 17 16 17 17 17 17 17 18 17 17
14 14 16 16 18 15 12 12 11 16 15 12 10 10 10 10 12 12 12 12 11 11 13 13 14 15 16 15 15 16 16 17 17 17 17 17 17 18 17 18 17 18 17 18
14 16 16 15 17 19 12 12 14 12 12 12 12 10 10 13 14 14 14 14 13 14 15 15 16 16 15 15 15 16 18 18 17 17 18 18 17 17 17 17 17 18 18 18
15 12 14 14 14 11 11 11 11 11 12 12 12 12 12 13 15 15 16 16 15 15 16 15 16 17 16 16 16 18 18 17 18 18 19 18 17 17 17 17 18 17 18 18
14 12 13 12 12 11 11 11 12 12 12 13 12 13 13 15 15 16 16 16 16 16 16 16 17 17 18 17 17 18 18 18 18 18 17 18 18 18 18 18 17 17 17 17
12 12 12 13 12 12 12 12 12 12 12 13 13 14 14 15 16 16 16 17 16 16 16 16 17 18 19 18 19 18 17 17 18 18 18 18 18 18 18 18 17 17 16 16
12 11 12 13 11 11 12 11 11 12 13 13 14 14 14 14 15 16 16 16 17 17 17 18 18 19 18 18 18 18 17 17 18 18 18 18 18 18 18 18 18 16 15 14